START_TIME,STEP,MOV.,AL01,t_acc.,AL02,t_acc.,E37,t_acc.,H21,t_acc.
1979-03-11 03:00:31.840 ,6,1,0.,24.0,0.,24.0,1.,24.0,0.,24.0
1979-03-11 03:00:55.840 ,7,1,3.,24.0,0.,24.0,1.,24.0,0.,24.0
1979-03-11 03:01:19.840 ,7,1,10.,24.0,0.,24.0,0.,24.0,0.,24.0
1979-03-11 03:01:43.840 ,6,1,6.,24.0,0.,24.0,0.,24.0,0.,24.0
1979-03-11 03:02:07.840 ,5,1,0.,24.0,0.,24.0,0.,24.0,0.,24.0
1979-03-11 03:02:31.840 ,4,1,0.,24.0,0.,24.0,0.,24.0,0.,24.0
1979-03-11 03:02:55.840 ,3,1,0.,24.0,0.,24.0,0.,24.0,0.,24.0
1979-03-11 03:03:19.840 ,2,1,0.,24.0,0.,24.0,0.,24.0,0.,24.0
1979-03-11 03:03:43.840 ,1,1,0.,24.0,0.,24.0,0.,24.0,0.,24.0
1979-03-11 03:04:07.840 ,0,1,0.,24.0,0.,24.0,3.,24.0,0.,24.0
1979-03-11 03:04:31.840 ,0,1,0.,24.0,0.,24.0,0.,24.0,0.,24.0
1979-03-11 03:04:55.840 ,1,1,0.,24.0,0.,24.0,1.,24.0,0.,24.0
1979-03-11 03:05:19.840 ,2,1,0.,24.0,0.,24.0,1.,24.0,0.,24.0
1979-03-11 03:05:43.840 ,3,1,0.,24.0,0.,24.0,0.,24.0,0.,24.0
1979-03-11 03:06:07.840 ,4,1,0.,24.0,0.,24.0,0.,24.0,0.,24.0
1979-03-11 03:06:31.840 ,5,1,0.,24.0,0.,24.0,1.,24.0,0.,24.0
1979-03-11 03:06:55.840 ,6,1,0.,24.0,0.,24.0,1.,24.0,0.,24.0
1979-03-11 03:07:19.840 ,7,1,3.,24.0,0.,24.0,0.,24.0,0.,24.0
1979-03-11 03:07:43.840 ,7,1,9.,24.0,0.,24.0,1.,24.0,0.,24.0
1979-03-11 03:08:07.840 ,6,1,3.,24.0,0.,24.0,1.,24.0,0.,24.0
1979-03-11 03:08:31.840 ,5,1,0.,24.0,0.,24.0,2.,24.0,0.,24.0
1979-03-11 03:08:55.840 ,4,1,0.,24.0,0.,24.0,1.,24.0,0.,24.0
1979-03-11 03:09:19.840 ,3,1,0.,24.0,0.,24.0,0.,24.0,0.,24.0
1979-03-11 03:09:43.840 ,2,1,,0,,0,,0,,0
1979-03-11 03:10:07.840 ,1,1,0.,24.0,0.,24.0,0.,24.0,0.,24.0
1979-03-11 03:10:31.840 ,0,1,0.,24.0,0.,24.0,0.,24.0,0.,24.0
1979-03-11 03:10:55.840 ,0,1,0.,24.0,0.,24.0,2.,24.0,0.,24.0
1979-03-11 03:11:19.840 ,1,1,0.,24.0,0.,24.0,0.,24.0,0.,24.0
1979-03-11 03:11:43.840 ,2,1,0.,24.0,0.,24.0,1.,24.0,0.,24.0
1979-03-11 03:12:07.840 ,3,1,0.,24.0,0.,24.0,0.,24.0,0.,24.0
1979-03-11 03:12:31.840 ,4,1,0.,24.0,0.,24.0,0.,24.0,0.,24.0
1979-03-11 03:12:55.840 ,5,1,0.,24.0,0.,24.0,1.,24.0,0.,24.0
1979-03-11 03:13:19.840 ,6,1,0.,24.0,0.,24.0,0.,24.0,0.,24.0
1979-03-11 03:13:43.840 ,7,1,1.,24.0,1.,24.0,1.,24.0,0.,24.0
1979-03-11 03:14:07.840 ,7,1,10.,24.0,0.,24.0,1.,24.0,0.,24.0
1979-03-11 03:14:31.840 ,6,1,7.,24.0,0.,24.0,1.,24.0,0.,24.0
1979-03-11 03:14:55.840 ,5,1,0.,24.0,0.,24.0,1.,24.0,0.,24.0
1979-03-11 03:15:19.840 ,4,1,0.,24.0,0.,24.0,0.,24.0,0.,24.0
1979-03-11 03:15:43.840 ,3,1,0.,24.0,0.,24.0,0.,24.0,0.,24.0
1979-03-11 03:16:07.840 ,2,1,0.,24.0,0.,24.0,1.,24.0,0.,24.0
1979-03-11 03:16:31.840 ,1,1,0.,24.0,0.,24.0,2.,24.0,0.,24.0
1979-03-11 03:16:55.840 ,0,1,0.,24.0,0.,24.0,0.,24.0,0.,24.0
1979-03-11 03:17:19.840 ,0,1,0.,24.0,0.,24.0,1.,24.0,0.,24.0
1979-03-11 03:17:43.840 ,1,1,0.,24.0,0.,24.0,0.,24.0,0.,24.0
1979-03-11 03:18:07.840 ,2,1,0.,24.0,0.,24.0,0.,24.0,0.,24.0
1979-03-11 03:18:31.840 ,3,1,0.,24.0,0.,24.0,0.,24.0,0.,24.0
1979-03-11 03:18:55.840 ,4,1,0.,24.0,0.,24.0,0.,24.0,0.,24.0
1979-03-11 03:19:19.840 ,5,1,0.,24.0,0.,24.0,1.,24.0,0.,24.0
1979-03-11 03:19:43.840 ,6,1,0.,24.0,0.,24.0,1.,24.0,0.,24.0
1979-03-11 03:20:07.840 ,7,1,4.,24.0,0.,24.0,0.,24.0,0.,24.0
1979-03-11 03:20:31.840 ,7,1,6.,24.0,0.,24.0,1.,24.0,0.,24.0
1979-03-11 03:20:55.840 ,6,1,5.,24.0,0.,24.0,0.,24.0,0.,24.0
1979-03-11 03:21:19.840 ,5,1,0.,24.0,0.,24.0,1.,24.0,0.,24.0
1979-03-11 03:21:43.840 ,4,1,0.,24.0,0.,24.0,0.,24.0,0.,24.0
1979-03-11 03:22:07.840 ,3,1,1.,24.0,0.,24.0,1.,24.0,0.,24.0
1979-03-11 03:22:31.840 ,2,1,0.,24.0,0.,24.0,0.,24.0,0.,24.0
1979-03-11 03:22:55.840 ,1,1,0.,24.0,0.,24.0,2.,24.0,0.,24.0
1979-03-11 03:23:19.840 ,0,1,0.,24.0,0.,24.0,1.,24.0,0.,24.0
1979-03-11 03:23:43.840 ,0,1,0.,24.0,0.,24.0,0.,24.0,0.,24.0
1979-03-11 03:24:07.840 ,1,1,0.,24.0,0.,24.0,0.,24.0,0.,24.0
1979-03-11 03:24:31.840 ,2,1,0.,24.0,0.,24.0,1.,24.0,0.,24.0
1979-03-11 03:24:55.840 ,3,1,0.,24.0,0.,24.0,1.,24.0,0.,24.0
1979-03-11 03:25:19.840 ,4,1,0.,24.0,0.,24.0,0.,24.0,0.,24.0
1979-03-11 03:25:43.840 ,5,1,0.,24.0,0.,24.0,0.,24.0,0.,24.0
1979-03-11 03:26:07.840 ,6,1,0.,24.0,0.,24.0,0.,24.0,0.,24.0
1979-03-11 03:26:31.840 ,7,1,1.,24.0,0.,24.0,0.,24.0,0.,24.0
1979-03-11 03:26:55.840 ,7,1,4.,24.0,0.,24.0,0.,24.0,0.,24.0
1979-03-11 03:27:19.840 ,6,1,7.,24.0,0.,24.0,1.,24.0,0.,24.0
1979-03-11 03:27:43.840 ,5,1,0.,24.0,0.,24.0,0.,24.0,0.,24.0
1979-03-11 03:28:07.840 ,4,1,0.,24.0,0.,24.0,0.,24.0,0.,24.0
1979-03-11 03:28:31.840 ,3,1,0.,24.0,1.,24.0,1.,24.0,0.,24.0
1979-03-11 03:28:55.840 ,2,1,0.,24.0,0.,24.0,1.,24.0,0.,24.0
1979-03-11 03:29:19.840 ,1,1,0.,24.0,1.,24.0,1.,24.0,0.,24.0
1979-03-11 03:29:43.840 ,0,1,0.,24.0,0.,24.0,2.,24.0,0.,24.0
1979-03-11 03:30:07.840 ,0,1,0.,24.0,0.,24.0,1.,24.0,0.,24.0
1979-03-11 03:30:31.840 ,1,1,1.,24.0,0.,24.0,1.,24.0,0.,24.0
1979-03-11 03:30:55.840 ,2,1,0.,24.0,0.,24.0,1.,24.0,0.,24.0
1979-03-11 03:31:19.840 ,3,1,0.,24.0,0.,24.0,1.,24.0,0.,24.0
1979-03-11 03:31:43.840 ,4,1,0.,24.0,0.,24.0,0.,24.0,0.,24.0
1979-03-11 03:32:07.840 ,5,1,0.,24.0,0.,24.0,0.,24.0,0.,24.0
1979-03-11 03:32:31.840 ,6,1,0.,24.0,0.,24.0,2.,24.0,0.,24.0
1979-03-11 03:32:55.840 ,7,1,6.,24.0,0.,24.0,0.,24.0,0.,24.0
1979-03-11 03:33:19.840 ,7,1,7.,24.0,0.,24.0,1.,24.0,0.,24.0
1979-03-11 03:33:43.840 ,6,1,9.,24.0,1.,24.0,0.,24.0,0.,24.0
1979-03-11 03:34:07.840 ,5,1,0.,24.0,0.,24.0,1.,24.0,0.,24.0
1979-03-11 03:34:31.840 ,4,1,0.,24.0,0.,24.0,0.,24.0,0.,24.0
1979-03-11 03:34:55.840 ,3,1,0.,24.0,0.,24.0,2.,24.0,0.,24.0
1979-03-11 03:35:19.840 ,2,1,0.,24.0,0.,24.0,2.,24.0,0.,24.0
1979-03-11 03:35:43.840 ,1,1,0.,24.0,0.,24.0,3.,24.0,0.,24.0
1979-03-11 03:36:07.840 ,0,1,0.,24.0,0.,24.0,2.,24.0,0.,24.0
1979-03-11 03:36:31.840 ,0,1,0.,24.0,0.,24.0,0.,24.0,0.,24.0
1979-03-11 03:36:55.840 ,1,1,0.,24.0,1.,24.0,0.,24.0,0.,24.0
1979-03-11 03:37:19.840 ,2,1,0.,24.0,0.,24.0,1.,24.0,0.,24.0
1979-03-11 03:37:43.840 ,3,1,0.,24.0,0.,24.0,1.,24.0,0.,24.0
1979-03-11 03:38:07.840 ,4,1,0.,24.0,0.,24.0,0.,24.0,0.,24.0
1979-03-11 03:38:31.840 ,5,1,0.,24.0,0.,24.0,0.,24.0,0.,24.0
1979-03-11 03:38:55.840 ,6,1,0.,24.0,0.,24.0,0.,24.0,0.,24.0
1979-03-11 03:39:19.840 ,7,1,4.,24.0,0.,24.0,1.,24.0,0.,24.0
1979-03-11 03:39:43.840 ,7,1,9.,24.0,0.,24.0,0.,24.0,0.,24.0
1979-03-11 03:40:07.840 ,6,1,4.,24.0,0.,24.0,0.,24.0,0.,24.0
1979-03-11 03:40:31.840 ,5,1,0.,24.0,0.,24.0,2.,24.0,0.,24.0
1979-03-11 03:40:55.840 ,4,1,0.,24.0,0.,24.0,0.,24.0,0.,24.0
1979-03-11 03:41:19.840 ,3,1,0.,24.0,0.,24.0,1.,24.0,0.,24.0
1979-03-11 03:41:43.840 ,2,1,0.,24.0,0.,24.0,0.,24.0,0.,24.0
1979-03-11 03:42:07.840 ,1,1,0.,24.0,0.,24.0,1.,24.0,0.,24.0
1979-03-11 03:42:31.840 ,0,1,0.,24.0,0.,24.0,0.,24.0,0.,24.0
1979-03-11 03:42:55.840 ,0,1,0.,24.0,0.,24.0,1.,24.0,0.,24.0
1979-03-11 03:43:19.840 ,1,1,0.,24.0,0.,24.0,0.,24.0,0.,24.0
1979-03-11 03:43:43.840 ,2,1,0.,24.0,0.,24.0,0.,24.0,0.,24.0
1979-03-11 03:44:07.840 ,3,1,0.,24.0,0.,24.0,0.,24.0,0.,24.0
1979-03-11 03:44:31.840 ,4,1,0.,24.0,0.,24.0,2.,24.0,0.,24.0
1979-03-11 03:44:55.840 ,5,1,0.,24.0,0.,24.0,0.,24.0,0.,24.0
1979-03-11 03:45:19.840 ,6,1,0.,24.0,0.,24.0,2.,24.0,0.,24.0
1979-03-11 03:45:43.840 ,7,1,2.,24.0,0.,24.0,1.,24.0,0.,24.0
1979-03-11 03:46:07.840 ,7,1,11.,24.0,0.,24.0,1.,24.0,0.,24.0
1979-03-11 03:46:31.840 ,6,1,4.,24.0,0.,24.0,0.,24.0,0.,24.0
1979-03-11 03:46:55.840 ,5,1,0.,24.0,0.,24.0,2.,24.0,0.,24.0
1979-03-11 03:47:19.840 ,4,1,0.,24.0,0.,24.0,2.,24.0,0.,24.0
1979-03-11 03:47:43.840 ,3,1,0.,24.0,0.,24.0,1.,24.0,0.,24.0
1979-03-11 03:48:07.840 ,2,1,0.,24.0,0.,24.0,0.,24.0,0.,24.0
1979-03-11 03:48:31.840 ,1,1,0.,24.0,0.,24.0,1.,24.0,0.,24.0
1979-03-11 03:48:55.840 ,0,1,0.,24.0,0.,24.0,1.,24.0,0.,24.0
1979-03-11 03:49:19.840 ,0,1,0.,24.0,0.,24.0,1.,24.0,0.,24.0
1979-03-11 03:49:43.840 ,1,1,0.,24.0,0.,24.0,1.,24.0,0.,24.0
1979-03-11 03:50:07.840 ,2,1,0.,24.0,0.,24.0,2.,24.0,0.,24.0
1979-03-11 03:50:31.840 ,3,1,0.,24.0,0.,24.0,0.,24.0,0.,24.0
1979-03-11 03:50:55.840 ,4,1,0.,24.0,0.,24.0,0.,24.0,0.,24.0
1979-03-11 03:51:19.840 ,5,1,0.,24.0,0.,24.0,0.,24.0,0.,24.0
1979-03-11 03:51:43.840 ,6,1,0.,24.0,0.,24.0,2.,24.0,0.,24.0
1979-03-11 03:52:07.840 ,7,1,2.,24.0,0.,24.0,1.,24.0,0.,24.0
1979-03-11 03:52:31.840 ,7,1,7.,24.0,0.,24.0,0.,24.0,0.,24.0
1979-03-11 03:52:55.840 ,6,1,6.,24.0,0.,24.0,1.,24.0,0.,24.0
1979-03-11 03:53:19.840 ,5,1,0.,24.0,0.,24.0,4.,24.0,0.,24.0
1979-03-11 03:53:43.840 ,4,1,0.,24.0,0.,24.0,0.,24.0,0.,24.0
1979-03-11 03:54:07.840 ,3,1,0.,24.0,0.,24.0,0.,24.0,0.,24.0
1979-03-11 03:54:31.840 ,2,1,0.,24.0,0.,24.0,1.,24.0,0.,24.0
1979-03-11 03:54:55.840 ,1,1,0.,24.0,0.,24.0,1.,24.0,0.,24.0
1979-03-11 03:55:19.840 ,0,1,0.,24.0,0.,24.0,0.,24.0,0.,24.0
1979-03-11 03:55:43.840 ,0,1,0.,24.0,0.,24.0,0.,24.0,0.,24.0
1979-03-11 03:56:07.840 ,1,1,0.,24.0,0.,24.0,0.,24.0,0.,24.0
1979-03-11 03:56:31.840 ,2,1,0.,24.0,0.,24.0,2.,24.0,0.,24.0
1979-03-11 03:56:55.840 ,3,1,0.,24.0,0.,24.0,0.,24.0,0.,24.0
1979-03-11 03:57:19.840 ,4,1,0.,24.0,0.,24.0,0.,24.0,0.,24.0
1979-03-11 03:57:43.840 ,5,1,0.,24.0,0.,24.0,0.,24.0,0.,24.0
1979-03-11 03:58:07.840 ,6,1,0.,24.0,0.,24.0,1.,24.0,0.,24.0
1979-03-11 03:58:31.840 ,7,1,1.,24.0,0.,24.0,0.,24.0,0.,24.0
1979-03-11 03:58:55.840 ,7,1,9.,24.0,0.,24.0,0.,24.0,0.,24.0
1979-03-11 03:59:19.840 ,6,1,10.,24.0,0.,24.0,0.,24.0,0.,24.0
1979-03-11 03:59:43.840 ,5,1,0.,24.0,0.,24.0,0.,24.0,0.,24.0
1979-03-11 04:00:07.840 ,4,1,0.,24.0,0.,24.0,0.,24.0,0.,24.0
1979-03-11 04:00:31.840 ,3,1,0.,24.0,0.,24.0,1.,24.0,0.,24.0
1979-03-11 04:00:55.840 ,2,1,1.,24.0,0.,24.0,0.,24.0,0.,24.0
1979-03-11 04:01:19.840 ,1,1,0.,24.0,0.,24.0,0.,24.0,0.,24.0
1979-03-11 04:01:43.840 ,0,1,0.,24.0,0.,24.0,0.,24.0,0.,24.0
1979-03-11 04:02:07.840 ,0,1,0.,24.0,0.,24.0,0.,24.0,0.,24.0
1979-03-11 04:02:31.840 ,1,1,0.,24.0,0.,24.0,1.,24.0,0.,24.0
1979-03-11 04:02:55.840 ,2,1,0.,24.0,0.,24.0,0.,24.0,0.,24.0
1979-03-11 04:03:19.840 ,3,1,0.,24.0,0.,24.0,1.,24.0,0.,24.0
1979-03-11 04:03:43.840 ,4,1,0.,24.0,0.,24.0,0.,24.0,0.,24.0
1979-03-11 04:04:07.840 ,5,1,0.,24.0,0.,24.0,1.,24.0,0.,24.0
1979-03-11 04:04:31.840 ,6,1,0.,24.0,0.,24.0,0.,24.0,0.,24.0
1979-03-11 04:04:55.840 ,7,1,1.,24.0,0.,24.0,0.,24.0,0.,24.0
1979-03-11 04:05:19.840 ,7,1,10.,24.0,0.,24.0,0.,24.0,0.,24.0
1979-03-11 04:05:43.840 ,6,1,5.,24.0,0.,24.0,1.,24.0,0.,24.0
1979-03-11 04:06:07.840 ,5,1,0.,24.0,0.,24.0,0.,24.0,0.,24.0
1979-03-11 04:06:31.840 ,4,1,0.,24.0,0.,24.0,0.,24.0,0.,24.0
1979-03-11 04:06:55.840 ,3,1,0.,24.0,0.,24.0,2.,24.0,0.,24.0
1979-03-11 04:07:19.840 ,2,1,0.,24.0,0.,24.0,0.,24.0,0.,24.0
1979-03-11 04:07:43.840 ,1,1,0.,24.0,1.,24.0,0.,24.0,0.,24.0
1979-03-11 04:08:07.840 ,0,1,0.,24.0,0.,24.0,0.,24.0,0.,24.0
1979-03-11 04:08:31.840 ,0,1,0.,24.0,0.,24.0,1.,24.0,0.,24.0
1979-03-11 04:08:55.840 ,1,1,0.,24.0,0.,24.0,1.,24.0,0.,24.0
1979-03-11 04:09:19.840 ,2,1,0.,24.0,0.,24.0,0.,24.0,0.,24.0
1979-03-11 04:09:43.840 ,3,1,0.,24.0,0.,24.0,2.,24.0,0.,24.0
1979-03-11 04:10:07.840 ,4,1,0.,24.0,0.,24.0,0.,24.0,0.,24.0
1979-03-11 04:10:31.840 ,5,1,0.,24.0,0.,24.0,1.,24.0,0.,24.0
1979-03-11 04:10:55.840 ,6,1,0.,24.0,0.,24.0,0.,24.0,0.,24.0
1979-03-11 04:11:19.840 ,7,1,1.,24.0,0.,24.0,0.,24.0,0.,24.0
1979-03-11 04:11:43.840 ,7,1,11.,24.0,0.,24.0,1.,24.0,0.,24.0
1979-03-11 04:12:07.840 ,6,1,4.,24.0,0.,24.0,0.,24.0,0.,24.0
1979-03-11 04:12:31.840 ,5,1,0.,24.0,0.,24.0,0.,24.0,0.,24.0
1979-03-11 04:12:55.840 ,4,1,0.,24.0,0.,24.0,0.,24.0,0.,24.0
1979-03-11 04:13:19.840 ,3,1,0.,24.0,0.,24.0,0.,24.0,0.,24.0
1979-03-11 04:13:43.840 ,2,1,0.,24.0,0.,24.0,0.,24.0,0.,24.0
1979-03-11 04:14:07.840 ,1,1,0.,24.0,0.,24.0,0.,24.0,0.,24.0
1979-03-11 04:14:31.840 ,0,1,0.,24.0,0.,24.0,0.,24.0,0.,24.0
1979-03-11 04:14:55.840 ,0,1,0.,24.0,0.,24.0,1.,24.0,0.,24.0
1979-03-11 04:15:19.840 ,1,1,0.,24.0,0.,24.0,2.,24.0,0.,24.0
1979-03-11 04:15:43.840 ,2,1,0.,24.0,0.,24.0,1.,24.0,0.,24.0
1979-03-11 04:16:07.840 ,3,1,0.,24.0,0.,24.0,0.,24.0,0.,24.0
1979-03-11 04:16:31.840 ,4,1,0.,24.0,0.,24.0,0.,24.0,0.,24.0
1979-03-11 04:16:55.840 ,5,1,0.,24.0,0.,24.0,2.,24.0,0.,24.0
1979-03-11 04:17:19.840 ,6,1,0.,24.0,0.,24.0,0.,24.0,0.,24.0
1979-03-11 04:17:43.840 ,7,1,1.,24.0,0.,24.0,0.,24.0,0.,24.0
1979-03-11 04:18:07.840 ,7,1,17.,24.0,0.,24.0,0.,24.0,0.,24.0
1979-03-11 04:18:31.840 ,6,1,8.,24.0,0.,24.0,0.,24.0,0.,24.0
1979-03-11 04:18:55.840 ,5,1,0.,24.0,0.,24.0,0.,24.0,0.,24.0
1979-03-11 04:19:19.840 ,4,1,0.,24.0,0.,24.0,0.,24.0,0.,24.0
1979-03-11 04:19:43.840 ,3,1,0.,24.0,0.,24.0,1.,24.0,0.,24.0
1979-03-11 04:20:07.840 ,2,1,0.,24.0,0.,24.0,0.,24.0,0.,24.0
1979-03-11 04:20:31.840 ,1,1,0.,24.0,0.,24.0,0.,24.0,0.,24.0
1979-03-11 04:20:55.840 ,0,1,0.,24.0,0.,24.0,0.,24.0,0.,24.0
1979-03-11 04:21:19.840 ,0,1,0.,24.0,0.,24.0,0.,24.0,0.,24.0
1979-03-11 04:21:43.840 ,1,1,0.,24.0,0.,24.0,1.,24.0,0.,24.0
1979-03-11 04:22:07.840 ,2,1,0.,24.0,0.,24.0,1.,24.0,0.,24.0
1979-03-11 04:22:31.840 ,3,1,0.,24.0,0.,24.0,0.,24.0,0.,24.0
1979-03-11 04:22:55.840 ,4,1,0.,24.0,0.,24.0,0.,24.0,0.,24.0
1979-03-11 04:23:19.840 ,5,1,0.,24.0,0.,24.0,0.,24.0,0.,24.0
1979-03-11 04:23:43.840 ,6,1,0.,24.0,0.,24.0,2.,24.0,0.,24.0
1979-03-11 04:24:07.840 ,7,1,2.,24.0,0.,24.0,1.,24.0,0.,24.0
1979-03-11 04:24:31.840 ,7,1,9.,24.0,0.,24.0,2.,24.0,0.,24.0
1979-03-11 04:24:55.840 ,6,1,10.,24.0,0.,24.0,0.,24.0,0.,24.0
1979-03-11 04:25:19.840 ,5,1,0.,24.0,0.,24.0,0.,24.0,0.,24.0
1979-03-11 04:25:43.840 ,4,1,0.,24.0,0.,24.0,0.,24.0,0.,24.0
1979-03-11 04:26:07.840 ,3,1,0.,24.0,0.,24.0,1.,24.0,0.,24.0
1979-03-11 04:26:31.840 ,2,1,0.,24.0,0.,24.0,0.,24.0,0.,24.0
1979-03-11 04:26:55.840 ,1,1,0.,24.0,0.,24.0,0.,24.0,0.,24.0
1979-03-11 04:27:19.840 ,0,1,0.,24.0,0.,24.0,2.,24.0,0.,24.0
1979-03-11 04:27:43.840 ,0,1,0.,24.0,0.,24.0,1.,24.0,0.,24.0
1979-03-11 04:28:07.840 ,1,1,0.,24.0,0.,24.0,0.,24.0,0.,24.0
1979-03-11 04:28:31.840 ,2,1,0.,24.0,0.,24.0,0.,24.0,0.,24.0
1979-03-11 04:28:55.840 ,3,1,0.,24.0,0.,24.0,0.,24.0,0.,24.0
1979-03-11 04:29:19.840 ,4,1,0.,24.0,0.,24.0,0.,24.0,0.,24.0
1979-03-11 04:29:43.840 ,5,1,0.,24.0,0.,24.0,0.,24.0,0.,24.0
1979-03-11 04:30:07.840 ,6,1,0.,24.0,0.,24.0,0.,24.0,0.,24.0
1979-03-11 04:30:31.840 ,7,1,2.,24.0,0.,24.0,0.,24.0,0.,24.0
1979-03-11 04:30:55.840 ,7,1,8.,24.0,0.,24.0,1.,24.0,0.,24.0
1979-03-11 04:31:19.840 ,6,1,11.,24.0,0.,24.0,0.,24.0,0.,24.0
1979-03-11 04:31:43.840 ,5,1,0.,24.0,0.,24.0,1.,24.0,0.,24.0
1979-03-11 04:32:07.840 ,4,1,0.,24.0,0.,24.0,0.,24.0,0.,24.0
1979-03-11 04:32:31.840 ,3,1,0.,24.0,0.,24.0,0.,24.0,0.,24.0
1979-03-11 04:32:55.840 ,2,1,0.,24.0,0.,24.0,0.,24.0,0.,24.0
1979-03-11 04:33:19.840 ,1,1,0.,24.0,0.,24.0,1.,24.0,0.,24.0
1979-03-11 04:33:43.840 ,0,1,0.,24.0,0.,24.0,0.,24.0,0.,24.0
1979-03-11 04:34:07.840 ,0,1,0.,24.0,0.,24.0,0.,24.0,0.,24.0
1979-03-11 04:34:31.840 ,1,1,0.,24.0,0.,24.0,0.,24.0,0.,24.0
1979-03-11 04:34:55.840 ,2,1,0.,24.0,0.,24.0,0.,24.0,0.,24.0
1979-03-11 04:35:19.840 ,3,1,0.,24.0,0.,24.0,0.,24.0,0.,24.0
1979-03-11 04:35:43.840 ,4,1,0.,24.0,0.,24.0,1.,24.0,0.,24.0
1979-03-11 04:36:07.840 ,5,1,0.,24.0,0.,24.0,0.,24.0,0.,24.0
1979-03-11 04:36:31.840 ,6,1,0.,24.0,0.,24.0,0.,24.0,0.,24.0
1979-03-11 04:36:55.840 ,7,1,1.,24.0,0.,24.0,0.,24.0,0.,24.0
1979-03-11 04:37:19.840 ,7,1,1.,24.0,0.,24.0,0.,24.0,0.,24.0
1979-03-11 04:37:43.840 ,6,1,9.,24.0,0.,24.0,1.,24.0,0.,24.0
1979-03-11 04:38:07.840 ,5,1,0.,24.0,0.,24.0,0.,24.0,0.,24.0
1979-03-11 04:38:31.840 ,4,1,1.,24.0,0.,24.0,1.,24.0,0.,24.0
1979-03-11 04:38:55.840 ,3,1,0.,24.0,0.,24.0,0.,24.0,0.,24.0
1979-03-11 04:39:19.840 ,2,1,0.,24.0,0.,24.0,1.,24.0,0.,24.0
1979-03-11 04:39:43.840 ,1,1,0.,24.0,1.,24.0,0.,24.0,0.,24.0
1979-03-11 04:40:07.840 ,0,1,0.,24.0,0.,24.0,0.,24.0,0.,24.0
1979-03-11 04:40:31.840 ,0,1,0.,24.0,0.,24.0,0.,24.0,0.,24.0
1979-03-11 04:40:55.840 ,1,1,0.,24.0,0.,24.0,1.,24.0,0.,24.0
1979-03-11 04:41:19.840 ,2,1,0.,24.0,0.,24.0,0.,24.0,0.,24.0
1979-03-11 04:41:43.840 ,3,1,0.,24.0,0.,24.0,0.,24.0,0.,24.0
1979-03-11 04:42:07.840 ,4,1,0.,24.0,0.,24.0,0.,24.0,0.,24.0
1979-03-11 04:42:31.840 ,5,1,0.,24.0,0.,24.0,1.,24.0,0.,24.0
1979-03-11 04:42:55.840 ,6,1,0.,24.0,0.,24.0,0.,24.0,0.,24.0
1979-03-11 04:43:19.840 ,7,1,3.,24.0,0.,24.0,0.,24.0,0.,24.0
1979-03-11 04:43:43.840 ,7,1,10.,24.0,0.,24.0,1.,24.0,0.,24.0
1979-03-11 04:44:07.840 ,6,1,5.,24.0,0.,24.0,0.,24.0,0.,24.0
1979-03-11 04:44:31.840 ,5,1,0.,24.0,0.,24.0,0.,24.0,0.,24.0
1979-03-11 04:44:55.840 ,4,1,0.,24.0,0.,24.0,0.,24.0,0.,24.0
1979-03-11 04:45:19.840 ,3,1,0.,24.0,0.,24.0,0.,24.0,0.,24.0
1979-03-11 04:45:43.840 ,2,1,0.,24.0,0.,24.0,0.,24.0,0.,24.0
1979-03-11 04:46:07.840 ,1,1,0.,24.0,0.,24.0,0.,24.0,0.,24.0
1979-03-11 04:46:31.840 ,0,1,0.,24.0,0.,24.0,0.,24.0,0.,24.0
1979-03-11 04:46:55.840 ,0,1,0.,24.0,0.,24.0,1.,24.0,0.,24.0
1979-03-11 04:47:19.840 ,1,1,0.,24.0,0.,24.0,0.,24.0,0.,24.0
1979-03-11 04:47:43.840 ,2,1,0.,24.0,0.,24.0,0.,24.0,0.,24.0
1979-03-11 04:48:07.840 ,3,1,0.,24.0,0.,24.0,0.,24.0,0.,24.0
1979-03-11 04:48:31.840 ,4,1,0.,24.0,0.,24.0,1.,24.0,0.,24.0
1979-03-11 04:48:55.840 ,5,1,0.,24.0,0.,24.0,0.,24.0,0.,24.0
1979-03-11 04:49:19.840 ,6,1,0.,24.0,0.,24.0,0.,24.0,0.,24.0
1979-03-11 04:49:43.840 ,7,1,1.,24.0,0.,24.0,1.,24.0,0.,24.0
1979-03-11 04:50:07.840 ,7,1,11.,24.0,0.,24.0,0.,24.0,0.,24.0
1979-03-11 04:50:31.840 ,6,1,10.,24.0,0.,24.0,0.,24.0,0.,24.0
1979-03-11 04:50:55.840 ,5,1,0.,24.0,0.,24.0,0.,24.0,0.,24.0
1979-03-11 04:51:19.840 ,4,1,0.,24.0,0.,24.0,0.,24.0,0.,24.0
1979-03-11 04:51:43.840 ,3,1,0.,24.0,0.,24.0,3.,24.0,0.,24.0
1979-03-11 04:52:55.840 ,0,0,0.,24.0,0.,24.0,1.,24.0,0.,24.0
1979-03-11 04:53:19.840 ,0,1,0.,24.0,0.,24.0,0.,24.0,0.,24.0
1979-03-11 04:53:43.840 ,1,1,0.,24.0,0.,24.0,0.,24.0,0.,24.0
1979-03-11 04:54:07.840 ,2,1,0.,24.0,0.,24.0,0.,24.0,0.,24.0
1979-03-11 04:54:31.840 ,3,1,0.,24.0,0.,24.0,1.,24.0,0.,24.0
1979-03-11 04:54:55.840 ,4,1,0.,24.0,0.,24.0,0.,24.0,0.,24.0
1979-03-11 04:55:19.840 ,5,1,0.,24.0,0.,24.0,0.,24.0,0.,24.0
1979-03-11 04:55:43.840 ,6,1,0.,24.0,0.,24.0,0.,24.0,0.,24.0
1979-03-11 04:56:07.840 ,7,1,1.,24.0,0.,24.0,1.,24.0,0.,24.0
1979-03-11 04:56:31.840 ,7,1,6.,24.0,0.,24.0,1.,24.0,0.,24.0
1979-03-11 04:56:55.840 ,6,1,5.,24.0,0.,24.0,0.,24.0,0.,24.0
1979-03-11 04:57:19.840 ,5,1,0.,24.0,0.,24.0,0.,24.0,0.,24.0
1979-03-11 04:57:43.840 ,4,1,0.,24.0,0.,24.0,0.,24.0,0.,24.0
1979-03-11 04:58:07.840 ,3,1,0.,24.0,0.,24.0,0.,24.0,0.,24.0
1979-03-11 04:58:31.840 ,2,1,0.,24.0,0.,24.0,1.,24.0,0.,24.0
1979-03-11 04:58:55.840 ,1,1,0.,24.0,0.,24.0,1.,24.0,0.,24.0
1979-03-11 04:59:19.840 ,0,1,0.,24.0,0.,24.0,0.,24.0,0.,24.0
1979-03-11 04:59:43.840 ,0,1,0.,24.0,0.,24.0,0.,24.0,0.,24.0
1979-03-11 05:00:07.840 ,1,1,0.,24.0,0.,24.0,0.,24.0,0.,24.0
1979-03-11 05:00:31.840 ,2,1,1.,24.0,0.,24.0,0.,24.0,0.,24.0
1979-03-11 05:00:55.840 ,3,1,0.,24.0,0.,24.0,1.,24.0,0.,24.0
1979-03-11 05:01:19.840 ,4,1,0.,24.0,0.,24.0,0.,24.0,0.,24.0
1979-03-11 05:01:43.840 ,5,1,0.,24.0,0.,24.0,1.,24.0,0.,24.0
1979-03-11 05:02:07.840 ,6,1,0.,24.0,0.,24.0,1.,24.0,0.,24.0
1979-03-11 05:02:31.840 ,7,1,2.,24.0,0.,24.0,0.,24.0,0.,24.0
1979-03-11 05:02:55.840 ,7,1,10.,24.0,0.,24.0,0.,24.0,0.,24.0
1979-03-11 05:03:19.840 ,6,1,3.,24.0,0.,24.0,0.,24.0,0.,24.0
1979-03-11 05:03:43.840 ,5,1,0.,24.0,0.,24.0,1.,24.0,0.,24.0
1979-03-11 05:04:07.840 ,4,1,0.,24.0,0.,24.0,1.,24.0,0.,24.0
1979-03-11 05:04:31.840 ,3,1,0.,24.0,0.,24.0,1.,24.0,0.,24.0
1979-03-11 05:04:55.840 ,2,1,0.,24.0,0.,24.0,1.,24.0,0.,24.0
1979-03-11 05:05:19.840 ,1,1,0.,24.0,0.,24.0,1.,24.0,0.,24.0
1979-03-11 05:05:43.840 ,0,1,0.,24.0,0.,24.0,1.,24.0,0.,24.0
1979-03-11 05:06:07.840 ,0,1,0.,24.0,0.,24.0,2.,24.0,0.,24.0
1979-03-11 05:06:31.840 ,1,1,1.,24.0,0.,24.0,2.,24.0,0.,24.0
1979-03-11 05:06:55.840 ,2,1,0.,24.0,0.,24.0,0.,24.0,0.,24.0
1979-03-11 05:07:19.840 ,3,1,2.,24.0,0.,24.0,2.,24.0,0.,24.0
1979-03-11 05:07:43.840 ,4,1,0.,24.0,0.,24.0,0.,24.0,0.,24.0
1979-03-11 05:08:07.840 ,5,1,0.,24.0,0.,24.0,1.,24.0,0.,24.0
1979-03-11 05:08:31.840 ,6,1,0.,24.0,0.,24.0,0.,24.0,0.,24.0
1979-03-11 05:08:55.840 ,7,1,1.,24.0,0.,24.0,0.,24.0,0.,24.0
1979-03-11 05:09:19.840 ,7,1,10.,24.0,0.,24.0,0.,24.0,0.,24.0
1979-03-11 05:09:43.840 ,6,1,10.,24.0,0.,24.0,0.,24.0,0.,24.0
1979-03-11 05:10:07.840 ,5,1,0.,24.0,0.,24.0,0.,24.0,0.,24.0
1979-03-11 05:10:31.840 ,4,1,0.,24.0,0.,24.0,0.,24.0,0.,24.0
1979-03-11 05:10:55.840 ,3,1,0.,24.0,0.,24.0,0.,24.0,0.,24.0
1979-03-11 05:11:19.840 ,2,1,0.,24.0,0.,24.0,0.,24.0,0.,24.0
1979-03-11 05:11:43.840 ,1,1,0.,24.0,0.,24.0,0.,24.0,0.,24.0
1979-03-11 05:12:07.840 ,0,1,0.,24.0,0.,24.0,1.,24.0,0.,24.0
1979-03-11 05:12:31.840 ,0,1,0.,24.0,0.,24.0,0.,24.0,0.,24.0
1979-03-11 05:12:55.840 ,1,1,3.,24.0,0.,24.0,1.,24.0,0.,24.0
1979-03-11 05:13:19.840 ,2,1,0.,24.0,0.,24.0,0.,24.0,0.,24.0
1979-03-11 05:13:43.840 ,3,1,0.,24.0,0.,24.0,0.,24.0,0.,24.0
1979-03-11 05:14:07.840 ,4,1,0.,24.0,0.,24.0,0.,24.0,0.,24.0
1979-03-11 05:14:31.840 ,5,1,0.,24.0,0.,24.0,1.,24.0,0.,24.0
1979-03-11 05:14:55.840 ,6,1,0.,24.0,0.,24.0,0.,24.0,0.,24.0
1979-03-11 05:15:19.840 ,7,1,1.,24.0,0.,24.0,1.,24.0,0.,24.0
1979-03-11 05:15:43.840 ,7,1,5.,24.0,0.,24.0,1.,24.0,0.,24.0
1979-03-11 05:16:07.840 ,6,1,6.,24.0,0.,24.0,0.,24.0,0.,24.0
1979-03-11 05:16:31.840 ,5,1,0.,24.0,0.,24.0,2.,24.0,0.,24.0
1979-03-11 05:16:55.840 ,4,1,0.,24.0,0.,24.0,0.,24.0,0.,24.0
1979-03-11 05:17:19.840 ,3,1,0.,24.0,0.,24.0,0.,24.0,0.,24.0
1979-03-11 05:17:43.840 ,2,1,0.,24.0,0.,24.0,0.,24.0,0.,24.0
1979-03-11 05:18:07.840 ,1,1,0.,24.0,0.,24.0,0.,24.0,0.,24.0
1979-03-11 05:18:31.840 ,0,1,0.,24.0,0.,24.0,0.,24.0,0.,24.0
1979-03-11 05:18:55.840 ,0,1,0.,24.0,0.,24.0,0.,24.0,0.,24.0
1979-03-11 05:19:19.840 ,1,1,0.,24.0,0.,24.0,0.,24.0,0.,24.0
1979-03-11 05:19:43.840 ,2,1,0.,24.0,0.,24.0,0.,24.0,0.,24.0
1979-03-11 05:20:07.840 ,3,1,0.,24.0,0.,24.0,0.,24.0,0.,24.0
1979-03-11 05:20:31.840 ,4,1,0.,24.0,0.,24.0,4.,24.0,0.,24.0
1979-03-11 05:20:55.840 ,5,1,0.,24.0,0.,24.0,0.,24.0,0.,24.0
1979-03-11 05:21:19.840 ,6,1,1.,24.0,0.,24.0,0.,24.0,0.,24.0
1979-03-11 05:21:43.840 ,7,1,0.,24.0,0.,24.0,0.,24.0,0.,24.0
1979-03-11 05:22:07.840 ,7,1,11.,24.0,0.,24.0,0.,24.0,0.,24.0
1979-03-11 05:22:31.840 ,6,1,10.,24.0,0.,24.0,0.,24.0,0.,24.0
1979-03-11 05:22:55.840 ,5,1,0.,24.0,0.,24.0,0.,24.0,0.,24.0
1979-03-11 05:23:19.840 ,4,1,0.,24.0,1.,24.0,1.,24.0,0.,24.0
1979-03-11 05:23:43.840 ,3,1,0.,24.0,0.,24.0,1.,24.0,0.,24.0
1979-03-11 05:24:07.840 ,2,1,0.,24.0,0.,24.0,2.,24.0,0.,24.0
1979-03-11 05:24:31.840 ,1,1,0.,24.0,0.,24.0,1.,24.0,0.,24.0
1979-03-11 05:24:55.840 ,0,1,0.,24.0,0.,24.0,1.,24.0,0.,24.0
1979-03-11 05:25:19.840 ,0,1,0.,24.0,0.,24.0,1.,24.0,0.,24.0
1979-03-11 05:25:43.840 ,1,1,0.,24.0,0.,24.0,0.,24.0,0.,24.0
1979-03-11 05:26:07.840 ,2,1,0.,24.0,0.,24.0,1.,24.0,0.,24.0
1979-03-11 05:26:31.840 ,3,1,0.,24.0,0.,24.0,1.,24.0,0.,24.0
1979-03-11 05:26:55.840 ,4,1,0.,24.0,0.,24.0,1.,24.0,0.,24.0
1979-03-11 05:27:19.840 ,5,1,0.,24.0,0.,24.0,0.,24.0,0.,24.0
1979-03-11 05:27:43.840 ,6,1,0.,24.0,0.,24.0,0.,24.0,0.,24.0
1979-03-11 05:28:07.840 ,7,1,1.,24.0,0.,24.0,0.,24.0,0.,24.0
1979-03-11 05:28:31.840 ,7,1,10.,24.0,0.,24.0,1.,24.0,0.,24.0
1979-03-11 05:28:55.840 ,6,1,9.,24.0,0.,24.0,1.,24.0,0.,24.0
1979-03-11 05:29:19.840 ,5,1,0.,24.0,1.,24.0,1.,24.0,0.,24.0
1979-03-11 05:29:43.840 ,4,1,0.,24.0,0.,24.0,1.,24.0,0.,24.0
1979-03-11 05:30:07.840 ,3,1,0.,24.0,0.,24.0,2.,24.0,0.,24.0
1979-03-11 05:30:31.840 ,2,1,0.,24.0,0.,24.0,2.,24.0,0.,24.0
1979-03-11 05:30:55.840 ,1,1,0.,24.0,0.,24.0,0.,24.0,0.,24.0
1979-03-11 05:31:19.840 ,0,1,0.,24.0,0.,24.0,0.,24.0,0.,24.0
1979-03-11 05:31:43.840 ,0,1,0.,24.0,0.,24.0,0.,24.0,0.,24.0
1979-03-11 05:32:07.840 ,1,1,0.,24.0,0.,24.0,0.,24.0,0.,24.0
1979-03-11 05:32:31.840 ,2,1,0.,24.0,0.,24.0,0.,24.0,0.,24.0
1979-03-11 05:32:55.840 ,3,1,0.,24.0,0.,24.0,0.,24.0,0.,24.0
1979-03-11 05:33:19.840 ,4,1,0.,24.0,0.,24.0,0.,24.0,0.,24.0
1979-03-11 05:36:07.840 ,0,0,0.,24.0,0.,24.0,3.,24.0,0.,24.0
1979-03-11 05:36:31.840 ,3,1,0.,24.0,0.,24.0,0.,24.0,0.,24.0
1979-03-11 05:36:55.840 ,2,1,0.,24.0,0.,24.0,0.,24.0,0.,24.0
1979-03-11 05:37:19.840 ,1,1,0.,24.0,0.,24.0,0.,24.0,0.,24.0
1979-03-11 05:37:43.840 ,0,1,0.,24.0,0.,24.0,1.,24.0,0.,24.0